P/L 153 DEB, 19245

Orbit data source: Space-Track

P/L 153 DEB, 19245 is space debris in LEO originally from a launch on Wed, 31 May 1967 UTC launched from the Air Force Western Test Range (AFWTR). Debris objects in space refer to the collection of defunct objects orbiting the Earth. Examples of debris include non-operational satellites, rocket bodies, and fragments generated from explosions, collisions, or faulty payload assembly.

Loading next visibility...
Identifier
19245, 1967-053K
Orbit
LEO
Country
Flag of USUS
Related business
Manufacturer
Unknown
Mission
Spacecraft
Bus & Motor
Unknown
Mass
Unknown
Launch date (UTC)
1967-05-31 (59 years ago)
Launch vehicle
Unknown
Launch site
Air Force Western Test Range (AFWTR)
Object type
Payload
Rocket body
Debris
Shape & HBR
Unknown shape, 0.1 m
Radar Cross Section
Small (<0.1 m²)

Expand to show TLE details & history
Last TLE update: 10 hours ago

TLE from 10 hours ago
0 P/L 153 DEB
1 19245U 67053K   26038.06489289  .00000832  00000-0  39574-3 0  9991
2 19245  69.9557 269.3342 0006864 286.2294 188.2039 14.22804011 11804
Epoch: 2026-02-07T01:33Z
TLE epoch observation values (Epoch: 2026-02-07T01:33:26.745Z)
Latitude
58.91287°
Longitude
-108.22841°
Altitude
830.134 km
Speed
7.441 km/s
True Right ascension
03h 29m 18s
True Declination
58° 45' 44"
Sunlit
Object was in daylight at epoch
Visualization orbit readout
Latitude
Unknown
Longitude
Unknown
Altitude
Unknown
Speed
Unknown
Apparent Right ascension
Unknown
Apparent Declination
Unknown
Sunlit
N/A
Visualization observer readout
Local Sidereal Time
13:59:34
Azimuth
Unknown
Elevation
Unknown
Doppler factor
Unknown
Orbital elements
Apogee altitude
818.845 km
Perigee altitude
808.971 km
Semi-major axis
7,192.045 km
Eccentricity
0.00069
Inclination
69.9557°
RAAN
269.3342°
Arg. of periapsis
286.2294°
True anomaly
188.19269°
Mean anomaly
188.2039°
Eccentric anomaly
188.19829°
Mean motion
3.55848 °/min
Orbital period
101.17 mins
BSTAR
0.00039574
Loading maneuver chart data...
Computing Atmospheric mass density...
Loading historical data...
Loading historical data...
Loading historical data...
Loading historical data...
Loading historical data...
Loading historical data...
Loading historical data...

Documentation

Showing up to 5 results
|